TimeEST,TemperatureF,Dew PointF,Humidity,Sea Level PressureIn,VisibilityMPH,Wind Direction,Wind SpeedMPH,Gust SpeedMPH,PrecipitationIn,Events,Conditions,WindDirDegrees,DateUTC
12:15 AM,23.0,17.6,80,30.01,10.0,North,3.5,-,N/A,,Overcast,350,2013-02-16 05:15:00
12:35 AM,23.0,17.6,80,30.01,10.0,North,3.5,-,N/A,,Overcast,350,2013-02-16 05:35:00
12:55 AM,23.0,17.6,80,30.01,10.0,NNW,4.6,-,N/A,,Overcast,340,2013-02-16 05:55:00
1:15 AM,23.0,17.6,80,30.00,10.0,North,5.8,-,N/A,,Overcast,360,2013-02-16 06:15:00
1:35 AM,21.2,15.8,80,30.00,10.0,North,4.6,-,N/A,,Overcast,360,2013-02-16 06:35:00
1:55 AM,21.2,15.8,80,30.00,10.0,North,4.6,-,N/A,,Overcast,360,2013-02-16 06:55:00
2:15 AM,21.2,15.8,80,30.00,10.0,North,5.8,-,N/A,,Scattered Clouds,10,2013-02-16 07:15:00
2:35 AM,21.2,15.8,80,29.99,10.0,North,4.6,-,N/A,,Mostly Cloudy,10,2013-02-16 07:35:00
2:55 AM,21.2,14.0,74,29.99,10.0,North,3.5,-,N/A,,Overcast,360,2013-02-16 07:55:00
3:15 AM,21.2,14.0,74,29.99,10.0,Calm,Calm,-,N/A,,Overcast,0,2013-02-16 08:15:00
3:35 AM,19.4,14.0,80,29.99,10.0,Calm,Calm,-,N/A,,Overcast,0,2013-02-16 08:35:00
3:55 AM,19.4,14.0,80,29.98,10.0,North,4.6,-,N/A,,Overcast,10,2013-02-16 08:55:00
4:15 AM,19.4,14.0,80,29.98,10.0,NNE,5.8,-,N/A,,Overcast,20,2013-02-16 09:15:00
4:35 AM,19.4,12.2,74,29.98,10.0,NE,4.6,-,N/A,,Mostly Cloudy,40,2013-02-16 09:35:00
4:55 AM,19.4,12.2,74,29.98,10.0,NE,3.5,-,N/A,,Mostly Cloudy,40,2013-02-16 09:55:00
5:15 AM,19.4,12.2,74,29.98,10.0,ENE,3.5,-,N/A,,Mostly Cloudy,60,2013-02-16 10:15:00
5:35 AM,19.4,12.2,74,29.97,10.0,East,3.5,-,N/A,,Mostly Cloudy,90,2013-02-16 10:35:00
5:55 AM,17.6,12.2,79,29.97,10.0,East,3.5,-,N/A,,Mostly Cloudy,100,2013-02-16 10:55:00
6:15 AM,17.6,10.4,73,29.97,10.0,ESE,3.5,-,N/A,,Partly Cloudy,110,2013-02-16 11:15:00
6:35 AM,17.6,10.4,73,29.97,10.0,Calm,Calm,-,N/A,,Partly Cloudy,0,2013-02-16 11:35:00
6:55 AM,17.6,12.2,79,29.97,10.0,Calm,Calm,-,N/A,,Clear,0,2013-02-16 11:55:00
7:15 AM,15.8,10.4,79,29.97,10.0,Calm,Calm,-,N/A,,Scattered Clouds,0,2013-02-16 12:15:00
7:35 AM,17.6,12.2,79,29.98,10.0,Calm,Calm,-,N/A,,Overcast,0,2013-02-16 12:35:00
7:55 AM,19.4,14.0,80,29.98,10.0,Calm,Calm,-,N/A,,Overcast,0,2013-02-16 12:55:00
8:15 AM,19.4,14.0,80,29.98,10.0,SSE,3.5,-,N/A,,Overcast,160,2013-02-16 13:15:00
8:35 AM,21.2,15.8,80,29.98,10.0,South,5.8,-,N/A,,Overcast,180,2013-02-16 13:35:00
8:55 AM,21.2,14.0,74,29.97,10.0,SSE,4.6,-,N/A,,Overcast,160,2013-02-16 13:55:00
9:15 AM,21.2,12.2,68,29.97,10.0,Calm,Calm,-,N/A,,Overcast,0,2013-02-16 14:15:00
9:35 AM,21.2,12.2,68,29.97,10.0,SE,5.8,-,N/A,,Overcast,130,2013-02-16 14:35:00
9:55 AM,23.0,14.0,68,29.97,10.0,South,4.6,-,N/A,,Overcast,180,2013-02-16 14:55:00
10:15 AM,23.0,14.0,68,29.96,10.0,SSE,5.8,-,N/A,,Mostly Cloudy,150,2013-02-16 15:15:00
10:35 AM,24.8,15.8,69,29.96,10.0,SSE,3.5,-,N/A,,Overcast,160,2013-02-16 15:35:00
10:55 AM,24.8,14.0,64,29.95,10.0,Calm,Calm,-,N/A,,Overcast,0,2013-02-16 15:55:00
11:15 AM,24.8,12.2,59,29.95,10.0,South,3.5,-,N/A,,Overcast,180,2013-02-16 16:15:00
11:35 AM,24.8,15.8,69,29.95,4.0,South,4.6,-,N/A,,Overcast,180,2013-02-16 16:35:00
11:55 AM,24.8,15.8,69,29.94,10.0,South,6.9,-,N/A,,Overcast,170,2013-02-16 16:55:00
12:15 PM,24.8,14.0,64,29.93,8.0,SSW,5.8,-,N/A,,Overcast,210,2013-02-16 17:15:00
12:35 PM,24.8,15.8,69,29.92,7.0,West,5.8,-,N/A,,Overcast,280,2013-02-16 17:35:00
12:55 PM,24.8,17.6,74,29.92,3.0,WNW,9.2,-,N/A,,Overcast,290,2013-02-16 17:55:00
1:15 PM,24.8,17.6,74,29.91,10.0,WNW,8.1,-,N/A,,Overcast,300,2013-02-16 18:15:00
1:35 PM,24.8,17.6,74,29.91,5.0,WNW,6.9,-,N/A,,Overcast,300,2013-02-16 18:35:00
1:55 PM,24.8,17.6,74,29.90,2.5,WNW,10.4,-,N/A,,Overcast,290,2013-02-16 18:55:00
2:15 PM,23.0,17.6,80,29.90,7.0,WNW,9.2,-,N/A,,Overcast,290,2013-02-16 19:15:00
2:35 PM,24.8,17.6,74,29.90,6.0,WNW,6.9,-,N/A,,Mostly Cloudy,290,2013-02-16 19:35:00
2:55 PM,24.8,15.8,69,29.90,5.0,WNW,8.1,16.1,N/A,,Overcast,300,2013-02-16 19:55:00
3:15 PM,24.8,14.0,64,29.90,10.0,NW,6.9,-,N/A,,Mostly Cloudy,310,2013-02-16 20:15:00
3:35 PM,24.8,14.0,64,29.90,10.0,NNW,4.6,-,N/A,,Overcast,330,2013-02-16 20:35:00
3:55 PM,24.8,10.4,54,29.90,10.0,NW,6.9,-,N/A,,Overcast,310,2013-02-16 20:55:00
4:15 PM,23.0,10.4,59,29.90,10.0,North,5.8,-,N/A,,Overcast,350,2013-02-16 21:15:00
4:35 PM,24.8,8.6,50,29.91,10.0,WNW,5.8,-,N/A,,Mostly Cloudy,300,2013-02-16 21:35:00
4:55 PM,24.8,8.6,50,29.91,10.0,NNW,5.8,-,N/A,,Overcast,330,2013-02-16 21:55:00
5:15 PM,24.8,6.8,46,29.91,10.0,North,4.6,-,N/A,,Mostly Cloudy,360,2013-02-16 22:15:00
5:35 PM,23.0,6.8,50,29.91,10.0,North,4.6,-,N/A,,Scattered Clouds,350,2013-02-16 22:35:00
5:55 PM,21.2,5.0,50,29.92,10.0,NW,4.6,-,N/A,,Clear,320,2013-02-16 22:55:00
6:15 PM,21.2,5.0,50,29.92,10.0,Calm,Calm,-,N/A,,Partly Cloudy,0,2013-02-16 23:15:00
6:35 PM,19.4,5.0,54,29.92,10.0,North,3.5,-,N/A,,Partly Cloudy,360,2013-02-16 23:35:00
6:55 PM,19.4,3.2,49,29.92,10.0,North,4.6,-,N/A,,Clear,360,2013-02-16 23:55:00
7:15 PM,19.4,5.0,54,29.92,10.0,North,3.5,-,N/A,,Clear,360,2013-02-17 00:15:00
7:35 PM,17.6,3.2,53,29.91,10.0,North,4.6,-,N/A,,Clear,10,2013-02-17 00:35:00
7:55 PM,17.6,5.0,58,29.91,10.0,NNE,4.6,-,N/A,,Clear,20,2013-02-17 00:55:00
8:15 PM,17.6,3.2,53,29.90,10.0,NNE,5.8,-,N/A,,Clear,20,2013-02-17 01:15:00
8:35 PM,17.6,3.2,53,29.90,10.0,NNE,4.6,-,N/A,,Clear,20,2013-02-17 01:35:00
8:55 PM,17.6,1.4,49,29.90,10.0,NNE,4.6,-,N/A,,Clear,30,2013-02-17 01:55:00
9:15 PM,17.6,1.4,49,29.89,10.0,NNE,5.8,-,N/A,,Clear,30,2013-02-17 02:15:00
9:35 PM,17.6,3.2,53,29.89,10.0,NE,4.6,-,N/A,,Clear,40,2013-02-17 02:35:00
9:55 PM,17.6,3.2,53,29.88,10.0,NE,4.6,-,N/A,,Clear,40,2013-02-17 02:55:00
10:15 PM,15.8,3.2,58,29.88,10.0,NNE,4.6,-,N/A,,Clear,20,2013-02-17 03:15:00
10:35 PM,15.8,3.2,58,29.88,10.0,Calm,Calm,-,N/A,,Clear,0,2013-02-17 03:35:00
10:55 PM,15.8,3.2,58,29.88,10.0,North,3.5,-,N/A,,Mostly Cloudy,10,2013-02-17 03:55:00
11:15 PM,15.8,6.8,68,29.87,10.0,North,3.5,-,N/A,,Overcast,360,2013-02-17 04:15:00
11:35 PM,15.8,3.2,58,29.87,10.0,Calm,Calm,-,N/A,,Overcast,0,2013-02-17 04:35:00
11:55 PM,15.8,5.0,62,29.87,10.0,North,3.5,-,N/A,,Overcast,360,2013-02-17 04:55:00